Regional Weather Roundup
Issued by NWS

Home | Current Version | Previous Version | Graphics & Text | Print | Product List | Glossary On
Versions: 1 2 3 4 5 6 7 8 9 10 11 12 13 14 15 16 17 18 19 20 21 22 23 24 25 26 27 28 29 30 31 32 33 34 35 36 37 38 39 40 41 42 43 44 45 46 47 48 49 50
000
ASUS43 KMKX 300311
RWRWI

WISCONSIN REGIONAL WEATHER ROUNDUP
NATIONAL WEATHER SERVICE MILWAUKEE/SULLIVAN WI
1000 PM CDT FRI AUG 29 2014

NOTE: "FAIR" INDICATES FEW OR NO CLOUDS BELOW 12,000 FEET WITH NO
SIGNIFICANT WEATHER AND/OR OBSTRUCTIONS TO VISIBILITY.

WIZ001-002-006>008-014>016-023>028-300400-
NORTHWEST WISCONSIN

CITY           SKY/WX    TMP DP  RH WIND       PRES   REMARKS
SUPERIOR ARPT  CLOUDY    62  61  99 CALM      29.80R FOG
ASHLAND        CLOUDY    65  64  97 CALM      29.79S FOG
HAYWARD        CLOUDY    66  65  96 S6        29.79F
SIREN          DRIZZLE   67  66  97 CALM      29.79R
RICE LAKE      LGT RAIN  64  63  94 CALM      29.82R
LADYSMITH      LGT RAIN  66  65  94 E3        29.83F
EAU CLAIRE     LGT RAIN  67  67 100 SE5       29.78F
MENOMONIE      LGT RAIN  68  67  98 NW9       29.80R
NEW RICHMOND   LGT RAIN  66  65  99 SE3       29.79S
OSCEOLA        DRIZZLE   68  68 100 CALM      29.80F
$$

WIZ003>005-009-010-017-018-300400-
NORTH CENTRAL WISCONSIN

CITY           SKY/WX    TMP DP  RH WIND       PRES   REMARKS
WOODRUFF       CLOUDY    64  63  94 CALM      29.84R
RHINELANDER    LGT RAIN  64  63  96 SE5       29.83F
EAGLE RIVER    LGT RAIN  64  64 100 CALM      29.81F
LAND O LAKES   RAIN      64  63  97 CALM      29.82F
PHILLIPS       LGT RAIN  64  64  98 SW5       29.81F
TOMAHAWK       LGT RAIN  64  63  96 CALM      29.83R
MEDFORD        CLOUDY    64  63  99 W6        29.84R
MERRILL        RAIN      66  66 100 SE5       29.83S
$$

WIZ029-030-035-036-043>047-300400-
CENTRAL WISCONSIN

CITY           SKY/WX    TMP DP  RH WIND       PRES   REMARKS
WAUSAU         LGT RAIN  66  65  96 E5        29.83R
MOSINEE        TSTM      66  64  94 E3        29.85R
MARSHFIELD     LGT RAIN  67  65  93 CALM      29.81F
STEVENS POINT  CLOUDY    66  64  92 NW3       29.86R
WAUPACA        MOCLDY    75  72  88 SE3       29.81S
WAUTOMA        CLOUDY    76  71  84 SE3       29.81F
WISC RAPIDS    TSTM      67  66  97 E5        29.83S FOG
CAMP DOUGLAS   LGT RAIN  70  70 100 W7        29.81R
$$

WIZ011>013-019>022-031-037>040-048>050-300400-
NORTHEAST WISCONSIN

CITY           SKY/WX    TMP DP  RH WIND       PRES   REMARKS
ANTIGO         CLOUDY    64  64  99 CALM      29.85F
STURGEON BAY   CLOUDY    70  66  88 S15G23    29.84S
GREEN BAY      MOCLDY    73  71  93 S8        29.82S
MANITOWOC      CLOUDY    71  69  93 S12       29.85S FOG
APPLETON       MOCLDY    73  72  94 SE8       29.82F
CLINTONVILLE   MOCLDY    73  68  83 S3        29.81S
OSHKOSH        MOCLDY    73  71  93 S8        29.82S
$$

WIZ032>034-041-042-053>061-300400-
SOUTHWEST WISCONSIN

CITY           SKY/WX    TMP DP  RH WIND       PRES   REMARKS
LA CROSSE      CLOUDY    71  68  90 CALM      29.78F
SPARTA         RAIN      66  66 100 SE7       29.82F
VIROQUA        CLOUDY    67  67 100 CALM      29.82F
BOSCOBEL       CLOUDY    74  67  78 CALM      29.78S THUNDER
PRAIRIE DU CHI CLOUDY    73  65  75 CALM      29.77F
PLATTEVILLE    MOCLDY    74  71  91 W14G25    29.82R
$$

WIZ056-057-062-063-064-067-068-300400-
SOUTH CENTRAL WISCONSIN

CITY           SKY/WX    TMP DP  RH WIND       PRES   REMARKS
BARABOO/DELLS  CLOUDY    77  69  76 S8        29.80F
LONE ROCK      CLOUDY    76  69  79 E5        29.79F
WATERTOWN      PTCLDY    75  71  89 S6        29.84S
MADISON        CLOUDY    78  70  76 S16       29.82F HX  80
MIDDLETON      FAIR      79  70  73 S12       29.82F HX  81
MONROE         CLOUDY    73  66  78 S13       29.83S
JANESVILLE     CLOUDY    73  63  68 SE8       29.84S
$$

WIZ051-052-058>065-066-070>072-300400-
SOUTHEAST WISCONSIN

CITY           SKY/WX    TMP DP  RH WIND       PRES   REMARKS
MILWAUKEE      PTCLDY    76  71  85 S12       29.87S
WAUKESHA       FAIR      72  70  94 S7        29.87S
MILWAUKEE/TIMM PTCLDY    75  68  78 S9        29.86S
RACINE         PTCLDY    75  69  81 S12G20    29.89S
BURLINGTON     LGT RAIN  74  69  86 SW13      29.88R
KENOSHA        MOCLDY    77  72  84 S13       29.88S
FOND DU LAC    MOCLDY    73  70  90 S6        29.83F
SHEBOYGAN      PTCLDY    73  70  90 S9        29.85F FOG
WEST BEND      MOCLDY    72  68  88 SE5       29.85F
JUNEAU         PTCLDY    73  70  88 SE8       29.85F
$$

LSZ147-162-300400-
LAKE SUPERIOR

STATION/POSITION TIME  TEMP    WIND        PRES    WAVE
                       AIR SEA DIR/SP/G            HT/PER
                 (UTC) (F)     (DEG/KT/KT) (MB)    (FT/S)
W MID LAKE BUOY  0250   62 57  280/  6/  6 1008.2S   0
DEVILS ISLAND    0300   60      10/  9/  9 1008.7R
PORT WING        0240   62      40/  7/  8 1008.8R
SAXON HARBOR     0200   67     210/  2/  5 1008.1S
$$

LMZ867-665-643>646-300400-
LAKE MICHIGAN

STATION/POSITION TIME  TEMP    WIND        PRES    WAVE
                       AIR SEA DIR/SP/G            HT/PER
                 (UTC) (F)     (DEG/KT/KT) (MB)    (FT/S)
N MID LAKE BUOY  0250   69 65  190/ 17/ 19 1010.1R   5/ 6
NORTHPORT PIER   0200   69     160/  9/ 16 1010.5R
SISTER BAY       0111   70     180/ 23/ 29   N/A
KEWAUNEE LAKESHO 0200   65     180/ 11/ 13 1009.8F
SHEBOYGAN LAKESH 0300   68 63  170/ 15/ 16 1010.8F
ATWATER BUOY     0300   71     170/ 14/ 16 1012.4R
MILWAUKEE LAKESH 0200   74     180/ 13/ 16   N/A
S MID LAKE BUOY  0250   72 69  150/ 16/ 19 1012.4R   2/ 4
KENOSHA   LAKESH 0300   72     170/ 18/ 21 1011.5R
$$

TC  - TEMPERATURE IN CELSIUS
VSB - VISIBILITY IN STATUTE MILES
WCI - WIND CHILL INDEX
HX  - HEAT INDEX



USA.gov is the U.S. government's official web portal to all federal, state and local government web resources and services.